User: anonymous   Login
Location: Ballingbuur
(53.0000°N, 5.7667°E)
Time: 10:44:11
(UTC+00:00)
Language:

Cosmos 990 Rocket - Orbit

View from above orbital plane
View from above orbital plane
View from above satellite
View from above satellite

Ground track
Ground track

The orbit data is extracted from the following two-line orbital elements,

1 10677U 78019B   21063.73657772  .00000031  00000-0  18000-4 0  9999
2 10677  74.0390 314.8220 0014301  53.2295 307.0170 14.40172832257500
Epoch (UTC): 04 March 2021 17:40:40
Eccentricity: 0.0014301
inclination: 74.0390°
perigee height: 748 km
apogee height: 768 km
right ascension of ascending node: 314.8220°
argument of perigee: 53.2295°
revolutions per day: 14.40172832
mean anomaly at epoch: 307.0170°
orbit number at epoch: 25750

The dashed part of the orbit path shows where the satellite is in the earth's shadow,  

DLR